Find Starlink 2346

NORAD ID: 47887 Int'l Des: 2021-021 Owner: SPXS Country: US Constellation: starlink operational
LEOCIRCULARSTARLINK_TYPE

リアルタイム位置

3D地球を読み込み中...

Starlink 2346について

説明を読み込み中...

次回通過

Passes for default location (London). Set your location on the main map for personalized predictions.

高度履歴

Loading altitude history...

軌道要素

1 47887U 21021AD 26124.00169483 .00002229 00000-0 83565-4 0 9992
2 47887 53.1604 23.8202 0001131 87.0721 273.0410 15.31700781284535
Epoch: May 4, 2026 • Age: 17 hours

現在のステータス

高度 482.5 km
速度 7.62 km/s
衛星直下点 -35.20°S, 119.48°E
打ち上げ日 Mar 14, 2021
運用期間 5.1 years
タイプ internet

技術仕様

分類 Payload
質量 260.00 kg
乾燥質量 248.00 kg
総質量 260.00 kg
長さ 0.20 m
直径 2.80 m
スパン 9.00 m
形状 Box + pan
製造者 SPXS
バスタイプ Starlink
フェーズステータス In Orbit
所有者/国 SPXS/US

Most Searched